TimeCDT,TemperatureF,Dew PointF,Humidity,Sea Level PressureIn,VisibilityMPH,Wind Direction,Wind SpeedMPH,Gust SpeedMPH,PrecipitationIn,Events,Conditions,WindDirDegrees,DateUTC
12:51 AM,78.8,64.4,61,29.90,10.0,SSE,18.4,35.7,N/A,,Partly Cloudy,150,2011-10-08 05:51:00
2:51 AM,77.0,64.0,64,29.83,10.0,SSE,13.8,21.9,N/A,,Overcast,150,2011-10-08 07:51:00
3:51 AM,77.0,64.0,64,29.84,10.0,South,16.1,21.9,N/A,,Mostly Cloudy,170,2011-10-08 08:51:00
4:51 AM,75.9,64.0,67,29.82,10.0,SSE,16.1,23.0,N/A,,Mostly Cloudy,160,2011-10-08 09:51:00
5:51 AM,75.9,64.0,67,29.81,10.0,SSE,16.1,27.6,N/A,,Partly Cloudy,160,2011-10-08 10:51:00
6:51 AM,75.0,63.0,66,29.84,10.0,SSE,21.9,28.8,N/A,,Clear,150,2011-10-08 11:51:00
7:51 AM,75.0,63.0,66,29.84,10.0,SSE,17.3,-,N/A,,Clear,160,2011-10-08 12:51:00
8:51 AM,75.9,64.0,67,29.86,10.0,South,12.7,19.6,N/A,,Partly Cloudy,180,2011-10-08 13:51:00
9:16 AM,75.2,64.4,69,29.94,10.0,South,15.0,23.0,N/A,,Mostly Cloudy,170,2011-10-08 14:16:00
9:51 AM,77.0,64.0,64,29.88,10.0,South,12.7,21.9,N/A,,Overcast,190,2011-10-08 14:51:00
10:51 AM,78.1,63.0,60,29.87,10.0,South,16.1,28.8,N/A,,Overcast,170,2011-10-08 15:51:00
11:51 AM,79.0,63.0,58,29.86,10.0,South,18.4,26.5,N/A,,Overcast,170,2011-10-08 16:51:00
12:21 PM,66.2,60.8,83,29.95,6.0,West,15.0,31.1,0.00,Rain,Light Rain,260,2011-10-08 17:21:00
12:51 PM,64.0,60.1,87,29.91,3.0,WNW,21.9,-,0.01,Rain,Heavy Rain,300,2011-10-08 17:51:00
12:55 PM,64.4,60.8,88,29.96,2.0,NW,17.3,26.5,0.05,Rain-Thunderstorm,Heavy Thunderstorms and Rain,310,2011-10-08 17:55:00
1:02 PM,64.4,60.8,88,29.95,4.0,NW,11.5,21.9,0.06,Rain-Thunderstorm,Light Thunderstorms and Rain,320,2011-10-08 18:02:00
1:14 PM,62.6,60.8,94,29.96,2.5,NNW,8.1,-,0.08,Rain-Thunderstorm,Heavy Thunderstorms and Rain,330,2011-10-08 18:14:00
1:17 PM,62.6,60.8,94,29.96,1.5,North,8.1,-,0.13,Rain-Thunderstorm,Heavy Thunderstorms and Rain,350,2011-10-08 18:17:00
1:27 PM,62.6,60.8,94,29.95,2.0,North,9.2,-,0.27,Rain-Thunderstorm,Thunderstorms and Rain,360,2011-10-08 18:27:00
1:34 PM,62.6,60.8,94,29.95,4.0,NNW,11.5,-,0.30,Rain-Thunderstorm,Thunderstorms and Rain,330,2011-10-08 18:34:00
1:49 PM,62.6,60.8,94,29.96,2.5,WNW,10.4,-,0.32,Rain-Thunderstorm,Thunderstorms and Rain,300,2011-10-08 18:49:00
1:51 PM,63.0,60.1,90,29.91,2.0,NW,9.2,-,0.35,Rain-Thunderstorm,Heavy Thunderstorms and Rain,310,2011-10-08 18:51:00
1:57 PM,62.6,60.8,94,29.96,0.8,NW,3.5,-,0.08,Rain-Thunderstorm,Heavy Thunderstorms and Rain,310,2011-10-08 18:57:00
2:06 PM,62.6,60.8,94,29.95,0.5,WNW,9.2,-,0.28,Fog-Rain-Thunderstorm,Heavy Thunderstorms and Rain,290,2011-10-08 19:06:00
2:22 PM,62.6,59.0,88,29.94,1.5,NNW,6.9,-,N/A,Rain-Thunderstorm,Thunderstorms and Rain,330,2011-10-08 19:22:00
2:25 PM,62.6,60.8,94,29.94,3.0,NW,6.9,-,0.62,Rain-Thunderstorm,Thunderstorms and Rain,320,2011-10-08 19:25:00
2:51 PM,63.0,60.1,90,29.88,8.0,NW,9.2,-,0.65,Rain-Thunderstorm,Light Thunderstorms and Rain,310,2011-10-08 19:51:00
3:30 PM,62.6,60.8,94,29.91,2.0,NNW,8.1,-,0.09,Rain-Thunderstorm,Thunderstorms and Rain,330,2011-10-08 20:30:00
3:39 PM,64.4,60.8,88,29.91,10.0,NW,6.9,-,0.10,Rain-Thunderstorm,Light Thunderstorms and Rain,310,2011-10-08 20:39:00
3:46 PM,64.4,60.8,88,29.91,10.0,NW,4.6,-,0.10,Thunderstorm,Thunderstorm,310,2011-10-08 20:46:00
3:51 PM,64.0,61.0,90,29.86,10.0,WNW,6.9,-,0.10,Thunderstorm,Thunderstorm,290,2011-10-08 20:51:00
4:51 PM,64.0,61.0,90,29.88,4.0,North,4.6,-,0.08,Rain-Thunderstorm,Thunderstorms and Rain,350,2011-10-08 21:51:00
4:59 PM,64.4,60.8,88,29.93,4.0,NNE,8.1,-,0.05,Rain-Thunderstorm,Heavy Thunderstorms and Rain,30,2011-10-08 21:59:00
5:07 PM,64.4,60.8,88,29.93,5.0,NE,8.1,-,0.07,Rain-Thunderstorm,Thunderstorms and Rain,40,2011-10-08 22:07:00
5:15 PM,64.4,60.8,88,29.93,7.0,North,10.4,-,0.08,Rain-Thunderstorm,Light Thunderstorms and Rain,10,2011-10-08 22:15:00
5:24 PM,64.4,60.8,88,29.92,6.0,NNW,10.4,-,0.09,Rain-Thunderstorm,Light Thunderstorms and Rain,340,2011-10-08 22:24:00
5:51 PM,64.0,61.0,90,29.89,10.0,North,10.4,-,0.11,Rain-Thunderstorm,Light Thunderstorms and Rain,360,2011-10-08 22:51:00
6:22 PM,62.6,60.8,94,29.92,10.0,NNE,15.0,-,0.02,Rain-Thunderstorm,Light Thunderstorms and Rain,30,2011-10-08 23:22:00
6:34 PM,62.6,60.8,94,29.90,4.0,NE,13.8,-,0.06,Rain-Thunderstorm,Heavy Thunderstorms and Rain,40,2011-10-08 23:34:00
6:51 PM,63.0,60.1,90,29.94,2.0,Variable,3.5,-,0.18,Rain-Thunderstorm,Heavy Thunderstorms and Rain,0,2011-10-08 23:51:00
6:57 PM,62.6,60.8,94,30.00,1.0,SSE,6.9,-,0.18,Rain-Thunderstorm,Heavy Thunderstorms and Rain,160,2011-10-08 23:57:00
7:08 PM,62.6,60.8,94,29.96,1.8,East,12.7,-,0.47,Rain-Thunderstorm,Heavy Thunderstorms and Rain,80,2011-10-09 00:08:00
7:13 PM,62.6,60.8,94,29.94,3.0,ENE,11.5,-,N/A,Rain-Thunderstorm,Heavy Thunderstorms and Rain,60,2011-10-09 00:13:00
7:23 PM,62.6,60.8,94,29.93,7.0,ENE,15.0,-,0.52,Rain-Thunderstorm,Light Thunderstorms and Rain,60,2011-10-09 00:23:00
7:30 PM,62.6,60.8,94,29.92,8.0,NE,13.8,-,0.53,Rain-Thunderstorm,Light Thunderstorms and Rain,50,2011-10-09 00:30:00
7:51 PM,63.0,61.0,93,29.87,8.0,ENE,16.1,-,0.57,Rain-Thunderstorm,Thunderstorms and Rain,70,2011-10-09 00:51:00
8:25 PM,62.6,60.8,94,29.95,6.0,East,15.0,24.2,0.10,Rain-Thunderstorm,Thunderstorms and Rain,90,2011-10-09 01:25:00
8:51 PM,61.0,57.9,90,29.91,5.0,East,21.9,-,0.23,Rain-Thunderstorm,Thunderstorms and Rain,80,2011-10-09 01:51:00
8:59 PM,62.6,57.2,82,29.97,6.0,East,17.3,27.6,N/A,Rain-Thunderstorm,Rain,90,2011-10-09 01:59:00
9:33 PM,60.8,57.2,88,29.94,5.0,East,26.5,32.2,0.17,Rain,Heavy Rain,100,2011-10-09 02:33:00
9:41 PM,60.8,57.2,88,29.94,5.0,East,20.7,31.1,0.20,Rain-Thunderstorm,Thunderstorms and Rain,90,2011-10-09 02:41:00
9:51 PM,61.0,57.9,90,29.90,7.0,East,17.3,29.9,0.22,Rain,Light Rain,90,2011-10-09 02:51:00
10:09 PM,60.8,57.2,88,29.91,10.0,East,18.4,-,0.02,Rain-Thunderstorm,Light Rain,80,2011-10-09 03:09:00
10:46 PM,62.6,59.0,88,29.93,10.0,ESE,18.4,28.8,0.03,Rain-Thunderstorm,Light Rain,120,2011-10-09 03:46:00
10:51 PM,62.6,59.0,88,29.93,10.0,East,18.4,26.5,N/A,Rain-Thunderstorm,Light Rain,100,2011-10-09 03:51:00
11:06 PM,62.6,59.0,88,29.95,10.0,SSE,13.8,26.5,0.00,Rain,Light Rain,150,2011-10-09 04:06:00
11:20 PM,62.6,59.0,88,29.90,10.0,East,25.3,32.2,0.00,Rain-Thunderstorm,Light Rain,90,2011-10-09 04:20:00
11:51 PM,62.1,59.0,90,29.85,10.0,East,26.5,36.8,0.03,Rain-Thunderstorm,Light Thunderstorms and Rain,100,2011-10-09 04:51:00